FW7144 Weather Reports


Display with metric or nautical units.
time (UTC)temp
F
wind
direction
speed
MPH
gust
MPH
rain 1hr
in
rain 24hr
in
rain mn
in
humidity
%
barometer
mb
20260906183220 72 298 3.0 11.0 0.01 0.22 0.02 59 1023.6
20260906182620 72 290 2.0 11.0 0.01 0.22 0.02 58 1023.6
20260906182045 72 292 2.0 9.0 0.01 0.22 0.02 59 1023.7
20260906181432 72 277 3.0 11.0 0.01 0.22 0.02 58 1023.8
20260906180820 70 205 4.0 11.0 0.01 0.22 0.02 57 1023.9
20260906180219 70 278 5.0 11.0 0.01 0.22 0.02 58 1024.0
20260906175620 70 230 2.0 11.0 0.00 0.20 0.00 61 1024.1
20260906175020 69 283 3.0 11.0 0.00 0.20 0.00 63 1024.2
20260906174420 69 284 3.0 11.0 0.00 0.20 0.00 65 1024.3
20260906173820 69 293 2.0 9.0 0.00 0.20 0.00 67 1024.4
20260906173232 68 256 3.0 9.0 0.00 0.20 0.00 66 1024.5
20260906172644 68 253 2.0 8.0 0.00 0.20 0.00 69 1024.5
20260906172020 68 231 0.0 7.0 0.00 0.20 0.00 70 1024.5
20260906171419 68 191 0.0 8.0 0.00 0.20 0.00 74 1024.5
20260906170820 67 282 0.0 8.0 0.00 0.20 0.00 72 1024.5
20260906170232 67 207 0.0 8.0 0.00 0.20 0.00 72 1024.6
20260906165619 66 248 0.0 7.0 0.00 0.20 0.00 73 1024.7
20260906165019 66 258 0.0 0.0 0.00 0.20 0.00 73 1024.7
20260906164420 67 259 0.0 0.0 0.00 0.20 0.00 73 1024.6
20260906163832 66 201 0.0 0.0 0.00 0.20 0.00 73 1024.6
20260906163219 65 286 0.0 0.0 0.00 0.20 0.00 76 1024.6
20260906162619 65 273 0.0 0.0 0.00 0.20 0.00 74 1024.6
20260906162019 65 260 0.0 0.0 0.00 0.20 0.00 73 1024.6
20260906161419 64 252 0.0 0.0 0.00 0.20 0.00 75 1024.5
20260906160820 63 315 0.0 0.0 0.00 0.20 0.00 78 1024.5
20260906160219 63 257 0.0 0.0 0.00 0.20 0.00 81 1024.5
20260906155620 62 257 0.0 0.0 0.00 0.20 0.00 81 1024.5
20260906155019 62 113 0.0 0.0 0.00 0.20 0.00 84 1024.4
20260906154420 61 153 0.0 0.0 0.00 0.20 0.00 85 1024.4
20260906153819 60 175 0.0 0.0 0.00 0.20 0.00 87 1024.4
20260906153244 60 181 0.0 0.0 0.00 0.20 0.00 89 1024.4
20260906152620 59 188 0.0 0.0 0.00 0.20 0.00 91 1024.4
20260906152019 59 134 0.0 0.0 0.00 0.20 0.00 92 1024.4
20260906151420 58 164 0.0 0.0 0.00 0.20 0.00 92 1024.3
20260906150820 58 163 0.0 0.0 0.00 0.20 0.00 93 1024.3
20260906150244 58 168 0.0 0.0 0.00 0.20 0.00 93 1024.2
20260906145620 58 126 0.0 0.0 0.00 0.20 0.00 94 1024.1
20260906145057 58 107 0.0 0.0 0.00 0.20 0.00 94 1024.1
20260906144419 58 120 0.0 0.0 0.00 0.20 0.00 94 1024.1
20260906143820 58 100 0.0 0.0 0.00 0.20 0.00 94 1024.0
20260906143244 58 101 0.0 0.0 0.00 0.20 0.00 94 1024.0
20260906142645 58 104 0.0 0.0 0.00 0.20 0.00 94 1024.0
20260906112620 56 133 0.0 0.0 0.00 0.20 0.00 94 1022.7
20260906112032 56 86 0.0 0.0 0.00 0.20 0.00 94 1022.6
20260906111419 56 85 0.0 0.0 0.00 0.20 0.00 94 1022.6
20260906110819 56 85 0.0 0.0 0.00 0.20 0.00 94 1022.6
20260906110219 56 76 0.0 0.0 0.00 0.20 0.00 94 1022.6
20260906105619 56 76 0.0 0.0 0.00 0.20 0.00 94 1022.6
20260906105020 56 76 0.0 0.0 0.00 0.20 0.00 94 1022.7
20260906104419 56 76 0.0 0.0 0.00 0.20 0.00 94 1022.7
20260906103819 56 76 0.0 0.0 0.00 0.20 0.00 94 1022.7
20260906103219 56 65 0.0 0.0 0.00 0.20 0.00 94 1022.7
20260906102620 56 108 0.0 0.0 0.00 0.20 0.00 94 1022.8
20260906102019 56 111 0.0 0.0 0.00 0.20 0.00 94 1022.8
20260906101419 55 109 0.0 0.0 0.00 0.20 0.00 94 1022.7
20260906100819 55 138 0.0 0.0 0.00 0.20 0.00 94 1022.7
20260906100220 56 28 0.0 0.0 0.00 0.20 0.00 94 1022.6
20260906095620 55 28 0.0 0.0 0.00 0.20 0.00 94 1022.6
20260906095019 56 36 0.0 0.0 0.00 0.20 0.00 94 1022.7
20260906094419 55 37 0.0 0.0 0.00 0.20 0.00 94 1022.7
20260906093819 55 55 0.0 0.0 0.00 0.20 0.00 93 1022.7
20260906093219 55 55 0.0 0.0 0.00 0.20 0.00 93 1022.8
20260906092620 56 67 0.0 0.0 0.00 0.20 0.00 93 1022.7
20260906092020 56 88 0.0 0.0 0.00 0.20 0.00 93 1022.7
20260906091419 56 107 0.0 0.0 0.00 0.20 0.00 93 1022.6
20260906090819 56 101 0.0 0.0 0.00 0.20 0.00 93 1022.6
20260906090219 56 101 0.0 0.0 0.00 0.20 0.00 93 1022.6
20260906085632 56 32 0.0 0.0 0.00 0.20 0.00 93 1022.6
20260906085020 56 33 0.0 0.0 0.00 0.20 0.00 93 1022.6
20260906084445 56 63 0.0 0.0 0.00 0.20 0.00 93 1022.6
20260906083820 56 51 0.0 0.0 0.00 0.20 0.00 93 1022.6
20260906083220 56 85 0.0 0.0 0.00 0.20 0.00 93 1022.7
20260906082620 56 133 0.0 0.0 0.00 0.20 0.00 93 1022.8
20260906082019 56 133 0.0 0.0 0.00 0.20 0.00 93 1022.8
20260906081432 56 133 0.0 0.0 0.00 0.20 0.00 93 1022.8
20260906080820 56 19 0.0 0.0 0.00 0.20 0.00 93 1022.8
20260906080219 56 19 0.0 0.0 0.00 0.20 0.00 93 1022.8
20260906075645 56 75 0.0 0.0 0.00 0.20 0.00 93 1022.9
20260906075020 56 61 0.0 0.0 0.00 0.20 0.00 93 1023.0
20260906074419 56 84 0.0 0.0 0.00 0.20 0.00 93 1023.1
20260906073819 56 72 0.0 0.0 0.00 0.20 0.00 93 1023.1
20260906073220 56 87 0.0 0.0 0.00 0.20 0.00 93 1023.1
20260906072620 56 87 0.0 0.0 0.00 0.20 0.00 93 1023.2
20260906072020 56 79 0.0 0.0 0.00 0.20 0.00 93 1023.3
20260906071420 56 68 0.0 0.0 0.00 0.20 0.00 93 1023.3
20260906070819 56 302 0.0 0.0 0.00 0.20 0.00 93 1023.2
20260906070233 56 302 0.0 0.0 0.00 0.20 0.00 93 1023.4
20260906065619 56 302 0.0 0.0 0.00 0.20 0.00 93 1023.5
20260906065044 57 314 0.0 0.0 0.00 0.20 0.00 93 1023.5
20260906064420 57 344 0.0 0.0 0.00 0.20 0.00 93 1023.7
20260906063819 57 284 0.0 0.0 0.00 0.20 0.00 93 1023.8
20260906063219 57 276 0.0 0.0 0.00 0.20 0.00 93 1023.8
20260906062620 57 171 0.0 0.0 0.00 0.20 0.00 93 1023.8
20260906062020 57 232 0.0 0.0 0.00 0.20 0.00 93 1023.8
20260906061419 57 233 0.0 0.0 0.00 0.20 0.00 93 1023.7
20260906060819 57 239 0.0 0.0 0.00 0.20 0.00 93 1023.5
20260906060219 57 230 0.0 0.0 0.00 0.20 0.41 93 1023.6
20260906055657 57 191 0.0 0.0 0.00 0.20 0.41 93 1023.5
20260906055019 57 173 0.0 0.0 0.00 0.20 0.41 93 1023.5
20260906054419 57 161 0.0 0.0 0.00 0.20 0.41 93 1023.5
20260906053845 57 183 0.0 0.0 0.00 0.20 0.41 93 1023.4
20260906053220 57 147 0.0 0.0 0.00 0.20 0.41 93 1023.5
20260906052620 57 133 0.0 0.0 0.00 0.20 0.41 93 1023.6
20260906052020 58 78 0.0 0.0 0.00 0.20 0.41 93 1023.6
20260906051420 58 78 0.0 0.0 0.00 0.20 0.41 93 1023.6
20260906050819 58 81 0.0 0.0 0.00 0.20 0.41 93 1023.6
20260906050220 58 89 0.0 2.0 0.00 0.20 0.41 93 1023.7
20260906045620 58 74 0.0 6.0 0.00 0.20 0.41 93 1023.7
20260906045057 58 93 3.0 6.0 0.00 0.20 0.41 93 1023.8
20260906044419 58 113 0.0 2.0 0.00 0.20 0.41 93 1023.8
20260906043820 58 74 0.0 0.0 0.00 0.20 0.41 93 1023.8
20260906043220 58 39 0.0 3.0 0.00 0.20 0.41 93 1023.8
20260906042619 58 71 0.0 3.0 0.00 0.20 0.41 93 1023.9
20260906042019 58 85 0.0 0.0 0.00 0.20 0.41 93 1024.1
20260906041420 58 101 0.0 0.0 0.00 0.20 0.41 93 1024.2
20260906040820 58 111 0.0 0.0 0.00 0.20 0.41 93 1024.2
20260906040244 58 106 0.0 0.0 0.00 0.20 0.41 93 1024.1
20260906035620 58 106 0.0 0.0 0.00 0.20 0.41 93 1024.1
20260906035045 58 101 0.0 0.0 0.00 0.20 0.41 93 1024.1
20260906034510 58 71 0.0 0.0 0.00 0.20 0.41 93 1024.1
20260906033819 58 67 0.0 0.0 0.01 0.20 0.41 93 1024.2
20260906033219 58 76 0.0 0.0 0.01 0.20 0.41 93 1024.2
20260906032620 58 89 0.0 0.0 0.01 0.20 0.41 93 1024.3
20260906032019 58 98 0.0 0.0 0.01 0.20 0.41 93 1024.2
20260906031419 58 58 0.0 0.0 0.01 0.20 0.41 93 1024.1
20260906030820 58 52 0.0 0.0 0.01 0.20 0.41 93 1024.2
20260906030219 58 64 0.0 0.0 0.01 0.20 0.41 93 1024.2
20260906025619 58 86 0.0 0.0 0.02 0.20 0.41 93 1024.2
20260906025019 58 93 0.0 0.0 0.02 0.20 0.41 92 1024.1
20260906024419 58 76 0.0 0.0 0.02 0.20 0.41 92 1024.1
20260906023819 58 146 0.0 0.0 0.01 0.19 0.39 92 1024.0
20260906023219 58 146 0.0 0.0 0.01 0.19 0.39 92 1023.9
20260906022620 58 295 0.0 0.0 0.01 0.19 0.39 92 1023.9
20260906022020 58 191 0.0 0.0 0.02 0.19 0.39 92 1023.8
20260906021420 58 260 0.0 0.0 0.02 0.20 0.39 92 1023.8
20260906020844 58 260 0.0 0.0 0.03 0.20 0.39 92 1023.8
20260906020219 59 243 0.0 5.0 0.03 0.20 0.39 92 1023.8
20260906015620 59 273 0.0 3.0 0.02 0.19 0.37 92 1023.6
20260906015020 59 269 0.0 0.0 0.03 0.19 0.37 92 1023.6
20260906014444 59 237 0.0 0.0 0.03 0.19 0.37 92 1023.5
20260906013819 59 260 0.0 0.0 0.03 0.19 0.37 92 1023.5
20260906013219 59 213 0.0 0.0 0.04 0.19 0.37 92 1023.5
20260906012620 59 272 0.0 0.0 0.04 0.19 0.37 92 1023.6
20260906012020 59 284 0.0 0.0 0.03 0.19 0.35 92 1023.6
20260906010819 59 250 0.0 0.0 0.03 0.19 0.32 92 1023.6
20260906010220 59 234 0.0 0.0 0.03 0.19 0.32 91 1023.7
20260906005620 59 236 0.0 0.0 0.04 0.20 0.32 91 1023.7
20260906005019 60 60 0.0 0.0 0.04 0.19 0.30 91 1023.8
20260906004419 60 60 0.0 0.0 0.05 0.20 0.30 91 1023.8
20260906003820 60 60 0.0 0.0 0.05 0.22 0.30 91 1023.8
20260906003219 60 60 0.0 0.0 0.05 0.22 0.28 91 1023.9
20260906002710 60 57 0.0 0.0 0.05 0.22 0.28 91 1023.8
20260906002019 60 72 0.0 0.0 0.05 0.23 0.28 91 1023.6
20260906001420 60 86 0.0 0.0 0.04 0.23 0.26 91 1023.5
20260906000819 60 86 0.0 0.0 0.04 0.27 0.26 90 1023.6
20260906000234 60 87 0.0 0.0 0.04 0.27 0.26 90 1023.7
20260905235619 59 87 0.0 0.0 0.04 0.26 0.24 90 1023.8
20260905235021 59 249 0.0 0.0 0.03 0.25 0.21 90 1023.7
20260905234419 59 249 0.0 0.0 0.03 0.24 0.19 90 1023.7
20260905233821 59 249 0.0 0.0 0.06 0.24 0.19 90 1023.6
20260905233220 59 249 0.0 6.0 0.07 0.23 0.17 89 1023.6
20260905232620 59 266 2.0 4.0 0.07 0.23 0.17 89 1023.5
20260905232020 60 286 0.0 3.0 0.08 0.23 0.17 89 1023.3
20260905231420 60 293 0.0 3.0 0.08 0.23 0.17 89 1023.4
20260905230820 60 236 0.0 2.0 0.08 0.23 0.17 88 1023.4
20260905230220 60 262 0.0 3.0 0.08 0.23 0.17 88 1023.2
20260905225620 60 235 0.0 3.0 0.07 0.22 0.15 88 1022.8
20260905225020 60 353 0.0 0.0 0.07 0.22 0.15 87 1022.9
20260905224509 60 354 0.0 3.0 0.06 0.22 0.13 86 1022.9
20260905223844 60 285 0.0 4.0 0.03 0.18 0.06 85 1022.9
20260905223220 60 0 0.0 7.0 0.01 0.16 0.02 84 1022.8
20260905222620 61 319 0.0 12.0 0.01 0.16 0.02 82 1022.9
20260905222019 63 354 3.0 11.0 0.00 0.15 0.00 81 1022.8
20260905221419 64 275 2.0 9.0 0.00 0.15 0.00 78 1022.7
20260905220819 64 249 2.0 6.0 0.00 0.15 0.00 77 1022.6
20260905220219 65 214 0.0 4.0 0.00 0.15 0.00 75 1022.5
20260905215619 65 161 0.0 3.0 0.00 0.15 0.00 73 1022.3
20260905215019 65 172 0.0 2.0 0.00 0.15 0.00 73 1022.2
20260905214419 66 135 0.0 3.0 0.00 0.15 0.00 73 1021.7
20260905213819 66 135 0.0 3.0 0.00 0.15 0.00 73 1021.5
20260905213220 66 138 0.0 3.0 0.00 0.15 0.00 72 1021.6
20260905212644 66 162 0.0 6.0 0.00 0.15 0.00 70 1021.8
20260905212020 66 154 2.0 6.0 0.00 0.15 0.00 69 1021.9
20260905211419 66 172 0.0 4.0 0.00 0.15 0.00 69 1022.1
20260905210820 67 152 0.0 5.0 0.00 0.15 0.00 70 1022.1
20260905210220 67 98 2.0 3.0 0.00 0.15 0.00 68 1022.0
20260905205632 67 159 0.0 2.0 0.00 0.15 0.00 67 1021.9
20260905205021 67 253 0.0 7.0 0.00 0.15 0.00 68 1022.1
20260905204421 67 232 0.0 5.0 0.00 0.15 0.00 68 1022.2
20260905203833 67 249 0.0 5.0 0.00 0.15 0.00 70 1022.2
20260905203220 68 212 2.0 7.0 0.00 0.15 0.00 69 1022.0
20260905202619 68 327 0.0 4.0 0.00 0.15 0.00 66 1022.0
20260905202020 68 238 0.0 3.0 0.00 0.15 0.00 66 1021.8
20260905201420 69 292 0.0 3.0 0.00 0.15 0.00 65 1021.8
20260905200844 69 337 0.0 9.0 0.00 0.15 0.00 67 1021.7
20260905200219 69 266 2.0 11.0 0.00 0.15 0.00 62 1021.8
20260905195620 70 213 3.0 9.0 0.00 0.15 0.00 61 1022.0
20260905195020 72 278 3.0 11.0 0.00 0.15 0.00 60 1022.3
20260905194420 75 215 0.0 8.0 0.00 0.15 0.00 54 1022.2
20260905193819 75 80 2.0 15.0 0.00 0.15 0.00 51 1022.0
20260905193220 76 106 2.0 11.0 0.00 0.15 0.00 50 1021.8
20260905192619 77 51 2.0 11.0 0.00 0.15 0.00 49 1021.8
20260905192019 79 102 3.0 15.0 0.00 0.15 0.00 47 1021.9
20260905191419 78 95 3.0 13.0 0.00 0.15 0.00 48 1022.0
20260905190820 78 49 5.0 16.0 0.00 0.15 0.00 49 1021.9
20260905190219 78 44 6.0 13.0 0.00 0.15 0.00 50 1022.0
20260905185619 78 56 6.0 13.0 0.00 0.15 0.00 50 1022.2
20260905185020 77 44 4.0 9.0 0.00 0.15 0.00 52 1022.4
20260905184432 76 20 2.0 12.0 0.00 0.15 0.00 54 1022.6
20260905183819 76 66 1.0 11.0 0.00 0.15 0.00 54 1022.6